www.pogodaiklimat.ru

Погода и климат >> Архив погоды >> Россия >> Нижегородская область >> Нижний Новгород


АРХИВ ПОГОДЫ в Нижнем Новгороде

Время (UTC), дата Ветер
(напр.,м/с)
 
Видим.   Явления Облачность Т
(С)
Тd
(С)
f
(%)
Тe
(С)
Тes
(С)
Комфортность P
(гПа)
Po
(гПа)
Тmin
(С)
Tmax
(С)
R
(мм)
R24
(мм)
S
(см)
03 14.10 В 2-3
{4}
10 км 10/10 300 м
[Sc]
+6.8 +6.4 97 +4 +4 по сезону 1024.0 1004.6 +6.8
06 14.10 В 1-2
{3}
10 км 10/10 300 м
[Sc]
+6.8 +5.2 90 +6 +6 тепло 1024.4 1005.0
09 14.10 штиль 0
{2}
4000 м слабый дождь 10/10 300 м
[Frnb]
+7.3 +6.4 94 +6 +6 по сезону 1024.9 1005.5
12 14.10 Ю 1-2
{2}
10 км {дождь} 10/10 600 м
[Sc]
+8.3 +6.5 88 +7 +7 по сезону 1023.4 1004.2
15 14.10 штиль 0
{2}
4000 м слабый дождь 10/10 300 м
[Frnb]
+7.9 +7.0 94 +7 +7 по сезону 1022.6 1003.3 +8.3 2
18 14.10 З 1-3
{4}
2000 м дымка {дождь} 10/10 200 м
[St]
+8.4 +8.2 99 +7 +7 тепло 1021.2 1002.0
21 14.10 З 2-5
{5}
4000 м дымка 10/10 200 м
[St]
+9.1 +8.6 97 +7 +7 тепло 1020.4 1001.2
00 15.10 З 1-3
{5}
4000 м дымка 10/10 300 м
[St]
+10.2 +9.8 97 +10 +10 тепло 1020.6 1001.6
03 15.10 З 1-2
{4}
2000 м дымка 10/10 200 м
[St]
+10.6 +10.2 97 +10 +10 тепло 1021.1 1002.1 +7.8 0.7
06 15.10 З 1-3
{4}
4000 м дымка {морось} 10/10 300 м
[St]
+11.4 +10.6 95 +11 +11 тепло 1021.7 1002.6
09 15.10 СЗ 2-4
{8}
10 км ясно +14.0 +10.6 80 +13 +17 тепло 1021.8 1003.0
12 15.10 СЗ 2-5
{5}
10 км ясно +19.2 +9.8 54 +21 +22 комфорт 1021.2 1002.7
15 15.10 З 1-3
{6}
10 км ясно +15.9 +7.3 57 +17 +17 тепло 1022.4 1003.6 +19.5 0.0
18 15.10 З 2-5
{5}
10 км ясно +13.1 +8.2 72 +12 +12 тепло 1022.8 1003.8
21 15.10 З 2-5
{5}
10 км ясно +10.5 +8.5 87 +9 +9 тепло 1023.2 1004.1
00 16.10 З 2-5
{5}
10 км ясно +8.8 +8.4 97 +7 +7 тепло 1023.3 1004.1
03 16.10 З 2-4
{5}
4000 м ясно +8.2 +8.0 99 +6 +6 тепло 1023.4 1004.1 +8.2
06 16.10 З 2-4
{5}
10 км 3/0
[Cc]
+9.0 +8.0 93 +7 +8 тепло 1023.1 1003.9 +7.8
09 16.10 З 2-5
{5}
10 км 10/0
[Ci]
+13.4 +7.0 65 +13 +15 тепло 1022.7 1003.8
12 16.10 З 2-5
{7}
10 км 10/0
[Ci]
+15.6 +7.4 58 +16 +17 тепло 1022.0 1003.2
15 16.10 З 1-3
{5}
10 км 10/0
[Ci]
+13.1 +6.7 65 +13 +13 тепло 1021.2 1002.3 +15.6
18 16.10 З 1-4
{5}
10 км 10/0
[Ci]
+11.0 +4.8 66 +11 +11 тепло 1020.4 1001.4
21 16.10 З 1-5
{5}
10 км 10/0
[Ci]
+9.8 +6.1 78 +9 +9 тепло 1019.2 1000.1
00 17.10 З 1-4
{7}
10 км 8/0
[Ci]
+8.5 +5.0 79 +8 +8 тепло 1019.0 999.8
03 17.10 З 2-5
{5}
10 км ясно +6.9 +4.1 82 +5 +5 по сезону 1019.8 1000.5 +6.9
06 17.10 СЗ 2-4
{5}
10 км 6/0
[Ci fib]
+8.5 +5.0 79 +7 +8 тепло 1021.0 1001.8 +6.5
09 17.10 С 2-6
{7}
10 км 6/6 600 м
[Sc]
+12.7 +5.9 63 +12 +13 тепло 1022.3 1003.3
12 17.10 С 2-5
{7}
10 км 4/0
[Ac trans Ci fib]
+13.4 +5.8 60 +13 +14 тепло 1023.6 1004.6
15 17.10 С 1-1
{6}
10 км ясно +9.7 +5.3 74 +9 +9 тепло 1025.2 1006.0 +13.7
18 17.10 СВ 1-1
{3}
10 км ясно +7.1 +3.2 76 +6 +6 тепло 1026.1 1006.7
21 17.10 ЮВ 1-1
{2}
10 км ясно +6.2 +2.8 79 +5 +5 по сезону 1026.4 1006.9
00 18.10 штиль 0
{2}
10 км ясно +4.2 +2.2 87 +3 +3 по сезону 1026.2 1006.6
03 18.10 Ю 1-2
{3}
10 км 8/0
[Ac trans]
+6.3 +4.2 86 +5 +5 тепло 1025.0 1005.6 +4.2
06 18.10 З 2-4
{4}
10 км 9/0
[Ac trans]
+7.7 +5.0 83 +6 +6 тепло 1024.4 1005.1
09 18.10 З 2-4
{5}
10 км ясно +11.9 +6.8 71 +11 +14 тепло 1022.8 1003.7
12 18.10 З 2-5
{6}
10 км ясно +15.3 +8.0 62 +15 +16 тепло 1020.1 1001.4
15 18.10 З 1-4
{5}
10 км ясно +12.7 +8.1 74 +13 +13 тепло 1019.0 1000.1 +15.3
18 18.10 З 2-7
{7}
10 км ясно +11.7 +7.1 73 +11 +11 тепло 1017.9 998.9
21 18.10 З 1-3
{6}
10 км ясно +10.3 +7.1 81 +10 +10 тепло 1017.2 998.2
00 19.10 З 1-3
{4}
10 км ясно +8.9 +6.2 83 +8 +8 тепло 1016.4 997.3
03 19.10 З 1-3
{4}
10 км ясно +8.2 +6.7 90 +7 +7 тепло 1015.4 996.3 +8.0
06 19.10 ЮЗ 1-2
{6}
10 км 4/0
[Ci fib]
+10.4 +7.4 82 +10 +11 тепло 1014.5 995.6 +7.7
09 19.10 З 2-5
{6}
10 км 4/0
[Ac trans]
+15.1 +9.5 69 +15 +17 тепло 1013.3 994.6
12 19.10 З 2-6
{7}
10 км 8/0
[Ac trans Ci fib]
+17.1 +9.7 62 +17 +18 тепло 1012.0 993.5
15 19.10 З 1-3
{7}
10 км 9/6 600 м
[Sc Ac trans]
+14.9 +10.3 74 +15 +15 тепло 1012.5 993.8 +17.1
18 19.10 СЗ 1-3
{4}
10 км 9/6 600 м
[Sc Ac trans]
+12.9 +9.4 79 +13 +13 тепло 1013.0 994.2
21 19.10 СЗ 1-3
{7}
10 км в посл. час ливневой дождь 10/8 600 м
[Cb cap Ac As]
+9.5 +7.0 84 +9 +9 тепло 1013.7 994.7
00 20.10 СЗ 1-2
{4}
10 км {ливн. осадки} 3/0
[Ac trans]
+6.2 +4.8 91 +5 +5 тепло 1014.1 994.9
03 20.10 З 2-4
{4}
10 км 6/6 300 м
[St]
+4.8 +4.1 95 +2 +2 по сезону 1014.8 995.5 +4.8 0.6
06 20.10 З 2-4
{5}
10 км 6/6 300 м
[St]
+4.8 +3.3 90 +2 +2 по сезону 1015.8 996.5
09 20.10 СЗ 2-5
{7}
10 км 10/10 600 м
[Sc]
+6.9 +0.9 66 +5 +5 по сезону 1017.1 997.8
12 20.10 СЗ 2-5
{8}
10 км 10/10 300 м
[Sc]
+7.2 +1.3 66 +5 +5 по сезону 1018.0 998.7
15 20.10 СЗ 1-2
{8}
10 км 3/0
[Ci fib]
+5.8 +1.0 71 +5 +5 по сезону 1019.3 999.9 +8.2
18 20.10 З 1-3
{4}
10 км 9/9 600 м
[Sc]
+4.7 +1.4 79 +4 +4 по сезону 1020.3 1000.9
21 20.10 З 1-2
{4}
10 км 9/9 600 м
[Sc]
+3.5 +2.2 91 +2 +2 по сезону 1021.3 1001.7
00 21.10 З 1-2
{4}
10 км 8/8 600 м
[Sc]
+2.6 +1.6 93 +1 +1 по сезону 1022.0 1002.4

 

Местоположение метеостанции Нижний Новгород (Нижегородская область, Россия): широта 56.27 долгота 44.00 высота над уровнем моря 157 м.

В архиве по умолчанию представлена погода в Нижнем Новгороде за последнюю неделю. Архивные данные за месяц целиком и за предыдущие месяцы, начиная с января 2011 года, Вы можете получить, выбрав интересующий диапазон дат из раскрывающегося списка и нажав кнопку "Ввод!".


*Определитесь, кто Вы:
робот инопланетянин человек

Внимание! Время в таблицах - всемирное. Для получения местного времени необходимо прибавить поправку, которая в Нижнем Новгороде равна 3 ч.

Смотрите также архив погоды в соседних городах и на ближайших метеорологических станциях:

Погода в Нижнем Новгороде аэропорт (Нижегородская область, Россия) (15 км)
Погода в Дальнем Константиново (Нижегородская область, Россия) (53 км)
Погода в Балахне (Нижегородская область, Россия) (54 км)
Погода в Волжской ГМО (Нижегородская область, Россия) (57 км)
Погода в Семенове (Нижегородская область, Россия) (60 км)
Погода в Павлово (Нижегородская область, Россия) (70 км)
Погода в Лысково (Нижегородская область, Россия) (70 км)
Погода в Арзамасе (Нижегородская область, Россия) (101 км)
Погода в Воскресенском (Нижегородская область, Россия) (106 км)
Погода в Вязниках (Владимирская область, Россия) (113 км)

Пояснения к столбцам:

Ветер - указаны скорость ветра в м/с - средняя за 10 мин, порывы в срок и между сроками (в фигурных скобках) и направление, откуда дует ветер: С - северный, СВ - северо-восточный, В - восточный, ЮВ - юго-восточный, Ю - южный, ЮЗ - юго-западный, З - западный, СЗ - северо-западный.
Видимость - горизонтальная дальность видимости в метрах или километрах. При видимости от 1 до 10 км при отсутствии осадков обычно наблюдается дымка, при ухудшении видимости до 1 км и менее - туман. В сухую погоду видимость может ухудшаться дымом, пылью или мглою.
Явления - указаны атмосферные явления, наблюдавшиеся в срок или в последний час перед сроком; фигурными скобками обозначены явления, наблюдавшиеся между сроками (за 1-3 часа до срока); квадратными скобками обозначены град или гололедные отложения с указанием их диаметра в мм.
Облачность - указаны через наклонную черту общая и нижняя облачность в баллах и высота нижней границы облаков в метрах; квадратными скобками обозначены формы облаков: Ci - перистые, Cs - перисто-слоистые, Cc - перисто-кучевые, Ac - высококучевые, As - высокослоистые, Sc - слоисто-кучевые, Ns - слоисто-дождевые, Cu - кучевые, Cb - кучево-дождевые. Подробнее классификацию облаков см. в Атласе облаков (PDF).
T - Температура воздуха - температура, измеренная на высоте 2 м над землей.
Td - Температура точки росы - температура, при понижении до которой содержащийся в воздухе водяной пар достигнет насыщения.
f - Относительная влажность воздуха - влажноcть воздуха, измеренная на высоте 2 м над землей.
Te - Эффективная температура - температура, которую ощущает одетый по сезону человек в тени. Характеристика душности погоды. При расчете учитывается влияние влажности воздуха и скорости ветра на теплоощущения человека.
Tes - Эффективная температура на солнце - температура, которую ощущает человек, с поправкой на солнечный нагрев. Характеристика знойности погоды. Зависит от высоты солнца над горизонтом, облачности и скорости ветра. Ночью, в пасмурную погоду, а также при ветре 12 м/с и более поправка равна нулю.
P - Атмосферное давление - приведенное к уровню моря атмосферное давление.
Po - Атмосферное давление - измеренное на уровне метеостанции атмосферное давление.
Tmin - Минимальная температура - минимум температуры воздуха на высоте 2 м над землей.
Tmax - Максимальная температура - максимум температуры воздуха на высоте 2 м над землей.
R - Количество осадков - Количество выпавших осадков за период времени, мм. При наведении курсора мыши на число - период времени, за который выпало указанное количество осадков.
R24 - Количество осадков - Количество выпавших осадков за 24 часа, мм.
S - Снежный покров - Высота снежного покрова, см. При наведении курсора мыши на число - состояние снежного покрова и степень покрытия местности в баллах.